AE5PL Weather Reports


time (UTC)temp
F
wind
direction
speed
knots
gust
knots
rain 1hr
in
rain 24hr
in
rain mn
in
humidity
%
barometer
mb
20260906223712 97 135 7.0 12.2 0.00 0.00 0.00 43 1010.0
20260906223212 97 157 6.1 12.2 0.00 0.00 0.00 43 1009.9
20260906222712 97 157 6.1 12.2 0.00 0.00 0.00 43 1009.9
20260906222212 97 157 7.8 12.2 0.00 0.00 0.00 42 1009.9
20260906221712 98 157 0.9 5.2 0.00 0.00 0.00 42 1009.9
20260906221212 98 180 4.3 7.8 0.00 0.00 0.00 43 1009.9
20260906220712 97 202 3.5 9.6 0.00 0.00 0.00 43 1009.9
20260906220212 97 180 5.2 8.7 0.00 0.00 0.00 42 1009.9
20260906215712 98 157 5.2 11.3 0.00 0.00 0.00 43 1009.9
20260906215212 97 157 7.0 11.3 0.00 0.00 0.00 43 1009.8
20260906214712 97 157 7.0 13.0 0.00 0.00 0.00 43 1009.9
20260906214212 98 157 8.7 13.0 0.00 0.00 0.00 43 1009.8
20260906213712 98 180 6.1 11.3 0.00 0.00 0.00 43 1009.8
20260906213212 98 180 3.5 12.2 0.00 0.00 0.00 43 1009.9
20260906212712 98 180 6.1 12.2 0.00 0.00 0.00 44 1010.0
20260906212212 98 157 6.1 12.2 0.00 0.00 0.00 43 1010.1
20260906211712 98 180 4.3 11.3 0.00 0.00 0.00 43 1010.1
20260906211212 98 225 4.3 14.8 0.00 0.00 0.00 44 1010.2
20260906210712 98 135 7.0 14.8 0.00 0.00 0.00 43 1010.3
20260906210212 97 157 6.1 12.2 0.00 0.00 0.00 44 1010.4
20260906205712 97 157 7.0 12.2 0.00 0.00 0.00 44 1010.6
20260906205212 97 135 7.8 13.9 0.00 0.00 0.00 43 1010.5
20260906204712 97 180 3.5 10.4 0.00 0.00 0.00 44 1010.6
20260906204212 97 135 6.1 12.2 0.00 0.00 0.00 44 1010.7
20260906203712 97 157 7.8 14.8 0.00 0.00 0.00 44 1010.7
20260906203212 97 180 7.8 14.8 0.00 0.00 0.00 44 1010.8
20260906202712 97 157 7.0 11.3 0.00 0.00 0.00 44 1010.8
20260906202212 97 157 5.2 10.4 0.00 0.00 0.00 44 1010.9
20260906201712 97 180 10.4 13.0 0.00 0.00 0.00 44 1011.0
20260906201212 97 157 7.8 14.8 0.00 0.00 0.00 44 1011.1
20260906200712 97 157 5.2 10.4 0.00 0.00 0.00 43 1011.2
20260906200212 97 180 7.8 11.3 0.00 0.00 0.00 44 1011.2
20260906195712 97 135 7.0 10.4 0.00 0.00 0.00 43 1011.2
20260906195212 97 157 6.1 11.3 0.00 0.00 0.00 43 1011.2
20260906194712 97 180 6.1 11.3 0.00 0.00 0.00 43 1011.3
20260906194212 97 180 7.8 12.2 0.00 0.00 0.00 43 1011.3
20260906193712 98 112 7.0 10.4 0.00 0.00 0.00 42 1011.4
20260906193212 97 135 7.0 11.3 0.00 0.00 0.00 43 1011.4
20260906192712 97 157 5.2 13.0 0.00 0.00 0.00 44 1011.5
20260906192213 96 157 8.7 17.4 0.00 0.00 0.00 44 1011.6
20260906191712 96 180 5.2 11.3 0.00 0.00 0.00 44 1011.7
20260906191212 96 135 6.1 11.3 0.00 0.00 0.00 45 1011.7
20260906190712 95 135 4.3 8.7 0.00 0.00 0.00 47 1011.7
20260906190212 95 135 4.3 9.6 0.00 0.00 0.00 47 1011.9
20260906185712 95 157 7.8 13.9 0.00 0.00 0.00 47 1012.0
20260906185212 95 135 6.1 13.0 0.00 0.00 0.00 47 1011.9
20260906184712 95 157 7.0 12.2 0.00 0.00 0.00 48 1012.0
20260906184212 95 135 4.3 10.4 0.00 0.00 0.00 47 1012.0
20260906183712 96 157 7.0 14.8 0.00 0.00 0.00 47 1012.0
20260906183212 96 157 7.0 13.0 0.00 0.00 0.00 48 1012.0
20260906182712 95 112 6.1 10.4 0.00 0.00 0.00 48 1012.1
20260906182212 95 157 6.1 10.4 0.00 0.00 0.00 48 1012.2
20260906181712 95 135 4.3 8.7 0.00 0.00 0.00 48 1012.4
20260906181212 95 112 7.0 12.2 0.00 0.00 0.00 48 1012.5
20260906180712 95 157 6.1 10.4 0.00 0.00 0.00 48 1012.5
20260906180212 95 112 6.1 11.3 0.00 0.00 0.00 48 1012.5
20260906175712 95 180 7.0 12.2 0.00 0.00 0.00 49 1012.6
20260906175212 96 135 2.6 8.7 0.00 0.00 0.00 49 1012.7
20260906174712 95 157 3.5 13.0 0.00 0.00 0.00 50 1012.9
20260906174212 94 157 6.1 13.0 0.00 0.00 0.00 50 1012.9
20260906173712 94 135 4.3 7.0 0.00 0.00 0.00 51 1013.0
20260906173212 94 112 1.7 8.7 0.00 0.00 0.00 51 1012.9
20260906172712 94 135 5.2 12.2 0.00 0.00 0.00 52 1013.1
20260906172212 93 157 4.3 11.3 0.00 0.00 0.00 52 1013.1
20260906171712 93 157 4.3 11.3 0.00 0.00 0.00 52 1013.1
20260906171212 94 135 5.2 10.4 0.00 0.00 0.00 51 1013.2
20260906170712 94 225 1.7 10.4 0.00 0.00 0.00 53 1013.3
20260906170212 93 157 5.2 11.3 0.00 0.00 0.00 53 1013.3
20260906165712 93 180 2.6 7.0 0.00 0.00 0.00 54 1013.4
20260906165212 93 135 5.2 8.7 0.00 0.00 0.00 53 1013.5
20260906164712 92 112 4.3 9.6 0.00 0.00 0.00 53 1013.4
20260906164212 93 135 2.6 8.7 0.00 0.00 0.00 53 1013.4
20260906163712 92 157 2.6 6.1 0.00 0.00 0.00 56 1013.4
20260906163212 91 90 5.2 7.8 0.00 0.00 0.00 57 1013.3
20260906162712 91 90 6.1 8.7 0.00 0.00 0.00 57 1013.3
20260906162212 91 112 6.1 9.6 0.00 0.00 0.00 57 1013.3
20260906161712 91 135 4.3 10.4 0.00 0.00 0.00 56 1013.3
20260906161212 91 135 6.1 10.4 0.00 0.00 0.00 56 1013.2
20260906160712 91 90 4.3 6.1 0.00 0.00 0.00 56 1013.2
20260906160212 91 90 5.2 9.6 0.00 0.00 0.00 56 1013.3
20260906155712 91 157 0.9 4.3 0.00 0.00 0.00 60 1013.3
20260906155212 90 135 4.3 8.7 0.00 0.00 0.00 59 1013.3
20260906154712 91 135 4.3 8.7 0.00 0.00 0.00 57 1013.3
20260906154212 91 90 2.6 6.1 0.00 0.00 0.00 58 1013.2
20260906153712 90 157 2.6 6.1 0.00 0.00 0.00 60 1013.2
20260906153212 90 157 2.6 5.2 0.00 0.00 0.00 63 1013.2
20260906152712 89 180 2.6 5.2 0.00 0.00 0.00 63 1013.1
20260906152212 89 157 1.7 5.2 0.00 0.00 0.00 63 1013.1
20260906151712 89 135 2.6 5.2 0.00 0.00 0.00 66 1013.2
20260906151212 89 157 1.7 4.3 0.00 0.00 0.00 68 1013.1
20260906150712 88 157 1.7 3.5 0.00 0.00 0.00 67 1013.1
20260906150212 88 135 1.7 2.6 0.00 0.00 0.00 70 1013.2
20260906145712 87 135 1.7 2.6 0.00 0.00 0.00 70 1013.2
20260906145212 87 112 0.9 3.5 0.00 0.00 0.00 71 1013.1
20260906144712 86 135 2.6 3.5 0.00 0.00 0.00 73 1013.1
20260906144212 86 157 0.9 3.5 0.00 0.00 0.00 74 1013.1
20260906143712 86 112 1.7 3.5 0.00 0.00 0.00 74 1013.2
20260906143212 85 157 0.9 3.5 0.00 0.00 0.00 76 1013.3
20260906142712 84 90 1.7 2.6 0.00 0.00 0.00 77 1013.3
20260906142212 84 90 0.9 2.6 0.00 0.00 0.00 78 1013.3
20260906141712 83 112 0.9 2.6 0.00 0.00 0.00 80 1013.3
20260906141212 83 90 1.7 1.7 0.00 0.00 0.00 81 1013.3
20260906140712 82 112 1.7 2.6 0.00 0.00 0.00 83 1013.2
20260906140212 82 135 1.7 2.6 0.00 0.00 0.00 84 1013.3
20260906135712 81 135 1.7 2.6 0.00 0.00 0.00 85 1013.2
20260906135454 81 90 1.7 2.6 0.00 0.00 0.00 86 1013.2
20260906135212 81 90 1.7 2.6 0.00 0.00 0.00 86 1013.2
20260906134712 80 90 0.9 2.6 0.00 0.00 0.00 86 1013.2
20260906134212 80 90 1.7 2.6 0.00 0.00 0.00 87 1013.2
20260906133712 80 135 1.7 2.6 0.00 0.00 0.00 87 1013.2
20260906133212 79 135 0.9 2.6 0.00 0.00 0.00 87 1013.2
20260906132712 79 112 0.9 2.6 0.00 0.00 0.00 88 1013.2
20260906132212 78 112 0.9 1.7 0.00 0.00 0.00 89 1013.3
20260906131712 78 112 0.9 1.7 0.00 0.00 0.00 90 1013.3
20260906131212 78 112 0.9 1.7 0.00 0.00 0.00 90 1013.3
20260906130712 77 0 0.0 0.0 0.00 0.00 0.00 91 1013.3
20260906130212 77 157 0.9 0.9 0.00 0.00 0.00 91 1013.1
20260906125712 76 157 0.0 0.9 0.00 0.00 0.00 91 1013.1
20260906125212 76 0 0.0 0.0 0.00 0.00 0.00 91 1013.0
20260906124712 76 0 0.0 0.0 0.00 0.00 0.00 92 1012.9
20260906124212 76 0 0.0 0.0 0.00 0.00 0.00 92 1012.9
20260906123712 76 0 0.0 0.0 0.00 0.00 0.00 93 1012.8
20260906123212 75 0 0.0 0.0 0.00 0.00 0.00 93 1012.9
20260906122712 75 0 0.0 0.0 0.00 0.00 0.00 93 1012.8
20260906122212 75 0 0.0 0.0 0.00 0.00 0.00 93 1012.8
20260906121712 75 0 0.0 0.0 0.00 0.00 0.00 93 1012.8
20260906121212 75 0 0.0 0.0 0.00 0.00 0.00 93 1012.7
20260906120712 75 0 0.0 0.0 0.00 0.00 0.00 93 1012.6
20260906120212 75 0 0.0 0.0 0.00 0.00 0.00 93 1012.6
20260906115712 75 0 0.0 0.0 0.00 0.00 0.00 92 1012.6
20260906115212 75 180 0.9 0.9 0.00 0.00 0.00 92 1012.6
20260906114712 75 0 0.0 0.0 0.00 0.00 0.00 92 1012.5
20260906114212 75 0 0.0 0.0 0.00 0.00 0.00 92 1012.5
20260906113712 75 0 0.0 0.0 0.00 0.00 0.00 92 1012.5
20260906113212 76 0 0.0 0.0 0.00 0.00 0.00 92 1012.4
20260906112712 76 0 0.0 0.0 0.00 0.00 0.00 92 1012.3
20260906112212 76 0 0.0 0.0 0.00 0.00 0.00 92 1012.3
20260906111712 76 0 0.0 0.0 0.00 0.00 0.00 92 1012.3
20260906111212 76 180 0.0 0.9 0.00 0.00 0.00 92 1012.3
20260906110712 76 180 0.9 1.7 0.00 0.00 0.00 92 1012.2
20260906110212 76 180 0.9 1.7 0.00 0.00 0.00 92 1012.3
20260906105712 76 180 1.7 2.6 0.00 0.00 0.00 92 1012.2
20260906105212 76 157 0.9 1.7 0.00 0.00 0.00 91 1012.1
20260906104712 76 157 0.9 0.9 0.00 0.00 0.00 91 1012.1
20260906104212 76 157 0.9 1.7 0.00 0.00 0.00 91 1012.0
20260906103712 76 157 1.7 2.6 0.00 0.00 0.00 91 1011.9
20260906103212 76 157 1.7 2.6 0.00 0.00 0.00 91 1011.9
20260906102712 76 157 0.9 0.9 0.00 0.00 0.00 91 1011.9
20260906102212 76 157 0.9 0.9 0.00 0.00 0.00 90 1011.8
20260906101712 76 0 0.0 0.0 0.00 0.00 0.00 90 1011.9
20260906101212 76 0 0.0 0.0 0.00 0.00 0.00 90 1012.0
20260906100712 76 0 0.0 0.0 0.00 0.00 0.00 90 1012.0
20260906100212 77 0 0.0 0.0 0.00 0.00 0.00 90 1011.9
20260906095712 77 0 0.0 0.0 0.00 0.00 0.00 89 1011.9
20260906095212 77 0 0.0 0.0 0.00 0.00 0.00 89 1011.8
20260906094712 77 0 0.0 0.0 0.00 0.00 0.00 89 1011.8
20260906094212 77 0 0.0 0.0 0.00 0.00 0.00 89 1011.7
20260906093712 77 0 0.0 0.0 0.00 0.00 0.00 88 1011.7
20260906093212 77 0 0.0 0.0 0.00 0.00 0.00 88 1011.7
20260906092712 78 0 0.0 0.0 0.00 0.00 0.00 88 1011.6
20260906092212 78 0 0.0 0.0 0.00 0.00 0.00 88 1011.6
20260906091712 78 0 0.0 0.0 0.00 0.00 0.00 88 1011.6
20260906091212 78 0 0.0 0.0 0.00 0.00 0.00 88 1011.6
20260906090712 78 0 0.0 0.0 0.00 0.00 0.00 87 1011.6
20260906090212 78 0 0.0 0.0 0.00 0.00 0.00 87 1011.6
20260906085712 78 0 0.0 0.0 0.00 0.00 0.00 87 1011.5
20260906085212 78 0 0.0 0.0 0.00 0.00 0.00 87 1011.4
20260906084712 78 0 0.0 0.0 0.00 0.00 0.00 86 1011.4
20260906084212 79 157 0.9 0.9 0.00 0.00 0.00 86 1011.3
20260906083712 79 157 0.9 0.9 0.00 0.00 0.00 85 1011.4
20260906083212 79 157 0.9 0.9 0.00 0.00 0.00 84 1011.4
20260906082712 79 157 1.7 2.6 0.00 0.00 0.00 84 1011.3
20260906082212 80 157 1.7 2.6 0.00 0.00 0.00 84 1011.3
20260906081712 80 180 1.7 3.5 0.00 0.00 0.00 84 1011.2
20260906081212 80 180 1.7 3.5 0.00 0.00 0.00 84 1011.4
20260906080712 79 180 1.7 3.5 0.00 0.00 0.00 84 1011.5
20260906080212 79 180 0.9 2.6 0.00 0.00 0.00 83 1011.4
20260906075712 79 157 0.0 2.6 0.00 0.00 0.00 83 1011.3
20260906075212 79 180 1.7 3.5 0.00 0.00 0.00 82 1011.3
20260906074712 80 180 0.9 1.7 0.00 0.00 0.00 82 1011.3
20260906074212 80 180 0.9 1.7 0.00 0.00 0.00 82 1011.3
20260906073712 80 180 0.9 2.6 0.00 0.00 0.00 81 1011.2
20260906073212 80 180 1.7 1.7 0.00 0.00 0.00 81 1011.3
20260906072712 80 180 0.0 0.9 0.00 0.00 0.00 81 1011.3
20260906072212 80 0 0.0 0.0 0.00 0.00 0.00 80 1011.3
20260906071712 80 0 0.0 0.0 0.00 0.00 0.00 80 1011.4
20260906071212 80 0 0.0 0.0 0.00 0.00 0.00 80 1011.5
20260906070712 81 0 0.0 0.0 0.00 0.00 0.00 79 1011.6
20260906070212 81 0 0.0 0.0 0.00 0.00 0.00 79 1011.7
20260906065712 81 180 0.9 2.6 0.00 0.00 0.00 79 1011.7
20260906065212 81 180 1.7 2.6 0.00 0.00 0.00 79 1011.8
20260906064712 81 180 2.6 4.3 0.00 0.00 0.00 79 1011.8
20260906064212 81 180 2.6 4.3 0.00 0.00 0.00 79 1011.8
20260906063712 81 180 1.7 2.6 0.00 0.00 0.00 79 1011.7
20260906063212 81 180 1.7 4.3 0.00 0.00 0.00 80 1011.6
20260906062712 81 180 1.7 4.3 0.00 0.00 0.00 80 1011.6
20260906062212 81 157 1.7 3.5 0.00 0.00 0.00 80 1011.6
20260906061712 81 135 1.7 3.5 0.00 0.00 0.00 79 1011.7
20260906061212 82 157 2.6 5.2 0.00 0.00 0.00 77 1011.5
20260906060712 82 180 3.5 6.1 0.00 0.00 0.00 77 1011.6
20260906060212 82 180 3.5 5.2 0.00 0.00 0.00 77 1011.7
20260906055712 82 157 0.9 3.5 0.00 0.00 0.00 77 1011.7
20260906055212 82 180 0.9 2.6 0.00 0.00 0.00 77 1011.7
20260906054712 82 157 0.9 3.5 0.00 0.00 0.00 78 1011.9
20260906054212 82 157 1.7 3.5 0.00 0.00 0.00 78 1011.9
20260906053712 82 180 1.7 2.6 0.00 0.00 0.00 78 1011.9
20260906053212 82 157 0.9 0.9 0.00 0.00 0.00 77 1011.8
20260906052712 82 157 1.7 2.6 0.00 0.00 0.00 77 1011.8
20260906052212 82 157 0.9 1.7 0.00 0.00 0.00 77 1011.7
20260906051712 82 0 0.0 0.0 0.00 0.00 0.00 76 1011.6
20260906051212 82 0 0.0 0.0 0.00 0.00 0.00 76 1011.6
20260906050712 82 0 0.0 0.0 0.00 0.00 0.00 76 1011.6
20260906050212 83 0 0.0 0.0 0.00 0.00 0.00 75 1011.5
20260906045712 83 0 0.0 0.0 0.00 0.00 0.00 75 1011.6
20260906045212 83 0 0.0 0.0 0.00 0.00 0.00 74 1011.5
20260906044712 83 0 0.0 0.0 0.00 0.00 0.00 74 1011.6
20260906044212 83 180 1.7 4.3 0.00 0.00 0.00 74 1011.7
20260906043712 83 157 2.6 5.2 0.00 0.00 0.00 73 1011.8
20260906043212 83 157 2.6 4.3 0.00 0.00 0.00 73 1011.8
20260906042712 84 157 1.7 2.6 0.00 0.00 0.00 72 1011.7
20260906042212 84 157 2.6 3.5 0.00 0.00 0.00 72 1011.7
20260906041712 84 157 2.6 3.5 0.00 0.00 0.00 72 1011.8
20260906041212 84 180 1.7 3.5 0.00 0.00 0.00 72 1011.6
20260906040712 84 157 0.9 2.6 0.00 0.00 0.00 71 1011.6
20260906040212 84 180 2.6 5.2 0.00 0.00 0.00 71 1011.7
20260906035712 84 180 2.6 5.2 0.00 0.00 0.00 71 1011.7
20260906035212 84 180 1.7 4.3 0.00 0.00 0.00 70 1011.8
20260906034712 84 180 0.0 1.7 0.00 0.00 0.00 70 1011.7
20260906034212 85 180 1.7 3.5 0.00 0.00 0.00 69 1011.6
20260906033712 85 157 0.9 1.7 0.00 0.00 0.00 69 1011.6
20260906033212 85 157 0.9 3.5 0.00 0.00 0.00 68 1011.6
20260906032712 85 180 1.7 3.5 0.00 0.00 0.00 68 1011.6
20260906032212 85 180 1.7 3.5 0.00 0.00 0.00 67 1011.6
20260906031712 85 157 2.6 2.6 0.00 0.00 0.00 67 1011.7
20260906031212 86 180 1.7 4.3 0.00 0.00 0.00 67 1011.7
20260906030712 86 180 2.6 6.1 0.00 0.00 0.00 66 1011.7
20260906030212 86 180 3.5 7.0 0.00 0.00 0.00 65 1011.7
20260906025712 86 180 4.3 7.0 0.00 0.00 0.00 65 1011.7
20260906025212 86 157 3.5 7.0 0.00 0.00 0.00 64 1011.7
20260906024712 86 157 3.5 7.8 0.00 0.00 0.00 64 1011.7
20260906024212 87 180 3.5 7.8 0.00 0.00 0.00 63 1011.5
20260906023712 87 180 3.5 7.0 0.00 0.00 0.00 63 1011.4
20260906023212 87 157 4.3 7.8 0.00 0.00 0.00 63 1011.3
20260906022712 87 180 4.3 8.7 0.00 0.00 0.00 62 1011.3
20260906022212 87 180 5.2 8.7 0.00 0.00 0.00 62 1011.2
20260906021712 87 180 3.5 7.8 0.00 0.00 0.00 62 1011.0
20260906021212 87 180 2.6 7.0 0.00 0.00 0.00 62 1010.9
20260906020712 88 180 4.3 8.7 0.00 0.00 0.00 61 1010.8
20260906020212 88 180 6.1 11.3 0.00 0.00 0.00 61 1010.9
20260906015712 88 180 5.2 9.6 0.00 0.00 0.00 61 1010.8
20260906015212 88 180 4.3 8.7 0.00 0.00 0.00 60 1010.7
20260906014712 88 180 5.2 8.7 0.00 0.00 0.00 60 1010.7
20260906014212 89 157 5.2 9.6 0.00 0.00 0.00 59 1010.7
20260906013712 89 157 5.2 7.8 0.00 0.00 0.00 59 1010.6
20260906013212 89 157 6.1 8.7 0.00 0.00 0.00 59 1010.6
20260906012712 89 157 6.1 9.6 0.00 0.00 0.00 58 1010.5
20260906012212 89 157 6.1 11.3 0.00 0.00 0.00 58 1010.5
20260906011712 90 157 7.8 13.0 0.00 0.00 0.00 57 1010.3
20260906011212 90 157 7.0 11.3 0.00 0.00 0.00 56 1010.3
20260906010712 90 157 7.0 13.9 0.00 0.00 0.00 56 1010.2
20260906010212 91 157 8.7 13.9 0.00 0.00 0.00 55 1010.1
20260906005712 91 157 8.7 14.8 0.00 0.00 0.00 55 1010.0
20260906005212 92 157 9.6 15.6 0.00 0.00 0.00 54 1010.0
20260906004712 94 157 7.0 15.6 0.00 0.00 0.00 50 1009.9
20260906004212 95 157 1.7 2.6 0.00 0.00 0.00 45 1009.7
20260906003712 95 180 1.7 3.5 0.00 0.00 0.00 44 1009.6
20260906003212 95 180 2.6 3.5 0.00 0.00 0.00 43 1009.7
20260906002712 96 157 2.6 3.5 0.00 0.00 0.00 43 1009.7
20260906002212 96 157 3.5 5.2 0.00 0.00 0.00 43 1009.7
20260906001712 96 157 3.5 6.1 0.00 0.00 0.00 43 1009.7
20260906001212 96 157 4.3 6.1 0.00 0.00 0.00 43 1009.8
20260906000712 96 180 4.3 7.0 0.00 0.00 0.00 42 1009.7
20260906000212 97 157 2.6 5.2 0.00 0.00 0.00 43 1009.7
20260905235712 97 135 4.3 7.0 0.00 0.00 0.00 42 1009.7
20260905235212 97 135 4.3 6.1 0.00 0.00 0.00 42 1009.6
20260905234712 97 157 3.5 5.2 0.00 0.00 0.00 42 1009.5
20260905234212 97 157 4.3 7.0 0.00 0.00 0.00 43 1009.4
20260905233712 97 157 4.3 7.0 0.00 0.00 0.00 42 1009.4
20260905233212 97 135 2.6 7.0 0.00 0.00 0.00 42 1009.5
20260905232712 97 157 2.6 4.3 0.00 0.00 0.00 42 1009.5
20260905232212 98 157 0.9 2.6 0.00 0.00 0.00 42 1009.5
20260905231712 98 157 1.7 4.3 0.00 0.00 0.00 42 1009.5
20260905231212 98 180 3.5 6.1 0.00 0.00 0.00 42 1009.6
20260905230712 98 135 3.5 6.1 0.00 0.00 0.00 42 1009.6
20260905230212 99 157 4.3 7.0 0.00 0.00 0.00 41 1009.6
20260905225712 99 180 1.7 2.6 0.00 0.00 0.00 40 1009.5
20260905225212 99 0 0.0 0.0 0.00 0.00 0.00 41 1009.5
20260905224712 98 180 0.9 5.2 0.00 0.00 0.00 42 1009.4
20260905224212 98 157 2.6 7.0 0.00 0.00 0.00 42 1009.4